Regional Weather Roundup
Issued by NWS Newport/Morehead, NC

Home | Current Version | Previous Version | Text Only | Print | Product List | Glossary On
Versions: 1 2 3 4 5 6 7 8 9 10 11 12 13 14 15 16 17 18 19 20 21 22 23 24 25 26 27 28 29 30 31 32 33 34 35 36 37 38 39 40 41 42 43 44 45 46 47 48 49 50
000
ASUS42 KMHX 040012
RWRMHX
WEATHER ROUNDUP FOR EASTERN NORTH CAROLINA
NATIONAL WEATHER SERVICE NEWPORT/MOREHEAD CITY NC
800 PM EDT SUN MAY 03 2015

NOTE: "FAIR" INDICATES FEW OR NO CLOUDS BELOW 12,000 FEET
WITH NO SIGNIFICANT WEATHER AND/OR OBSTRUCTIONS TO VISIBILITY

NCZ015>017-031-032-045>047-102-103-040100-
NORTH COAST

CITY           SKY/WX    TMP DP  RH WIND       PRES   REMARKS
EDENTON        PTCLDY    69  56  65 SW3       30.16R
ELIZABETH CITY PTCLDY    64  53  67 S6        30.16R
KITTY HAWK     PTCLDY    69  44  40 S5        30.16R
MANTEO         CLEAR     66  53  62 S7        30.18R

$$

NCZ045>047-081-094-103-104-040100-
CENTRAL COAST

CITY           SKY/WX    TMP DP  RH WIND       PRES   REMARKS
FRISCO         CLEAR     60  58  92 SW5       30.19R
SWANQUARTER      N/A     68 N/A N/A S7        30.15S

$$

NCZ095-097-098-100-101-040100-
SOUTHERN COAST

CITY           SKY/WX    TMP DP  RH WIND       PRES   REMARKS
BEAUFORT       CLEAR     65  56  72 SW5       30.20R
CEDAR ISLAND     N/A     68 N/A N/A S6        30.24R
JACKSONVILLE   CLEAR     67  44  43 S5        30.19R
PINEY ISLAND   CLEAR    N/A N/A N/A S7        30.19R
WILMINGTON     CLEAR     68  48  48 S7        30.19R


$$

NCZ011>013-027>030-043-044-078>080-089-090>093-098-040100-
COASTAL PLAIN

CITY           SKY/WX    TMP DP  RH WIND       PRES   REMARKS
AHOSKIE        PTCLDY    65  52  62 CALM      30.17R
CLINTON        CLEAR     69  54  58 CALM      30.17R
ELIZABETHTOWN  CLEAR     71  41  33 S7        30.17R
GOLDSBORO      CLEAR     70  51  50 CALM      30.15R
GREENVILLE     CLEAR     64  52  63 CALM      30.18R
HAVELOCK       CLEAR     68  45  43 SE5       30.20R
KENANSVILLE    CLEAR     70  41  34 SE3       30.18R
KINSTON        NOT AVBL
NEW BERN       CLOUDY    70  42  36 S7        30.19R
RICHLANDS      CLEAR     68  45  42 S7        30.19R
ROCKY MOUNT    CLEAR     67  51  56 CALM      30.16R
WASHINGTON     CLEAR     68  50  52 CALM      30.17S
WHITEVILLE     CLEAR     70  48  46 S3        30.18R

$$

AMZ130-135-150-152-154-156-158-170-250-252-270-ANZ085-086-088-633-658-670-040100-
MARINE OBSERVATIONS

STATION/POSITION TIME  TEMP    WIND        PRES    WAVE   SWELL
                       AIR SEA DIR/SP/G            HT/PER HT/PER
                 (UTC) (F)     (DEG/KT/KT) (MB)    (FT/S) (FT/S)
CHESAPEAKE LIGHT 2300   70     190/ 18/ 19 1020.8
64 E VA BEACH    2350   63 63  190/  8/ 10 1021.0    5/11   5/11
DUCK             2300   65 55  160/ 11/ 12 1020.0
2 E DUCK         2311      60                N/A     4/13   2/13
OREGON INLET     2300   67 64  170/  6/  7 1021.5
13E OREGON INLT  0000      54                N/A     4/11   2/11
HATTERAS CG      2300   69 65  200/  5/  7 1021.6
DIAMOND BUOY     2350   67 61  230/  6/  6 1022.2    4/11   5/11
CAPE LOOKOUT     0000   67     210/  4/  5 1022.3
BEAUFORT LAB     2300   69 65  210/  5/  7 1021.3
27 SE WRIGHTSVLE 2300   69 73  200/ 10/ 12   N/A
5 SE WRIGHTSVLE  2308   70 68  190/ 10/ 12 1022.0
225 S CAPE HAT   2350   69 70   40/ 14/ 17 1023.1    9/13   8/13
41 SE CHARLESTON 2350   72 75  130/  6/  8 1021.8    2/10   2/10

$$



USA.gov is the U.S. government's official web portal to all federal, state and local government web resources and services.